Simultaneous Nadir Overpasses (SNOs) Predictions

Prediction of SNOs near equator between AQUA and NPP Satellite Orbit:

Table of predicted SNOs near equator for the next 14.0 days since TLE Epoch: 10/12/2012
Index Date (AQUA) Time (AQUA) AQUA Lat,Lon Date (NPP) Time (NPP) NPP Lat,Lon Distance(km) Time Diff (sec)
1 10/14/2012 17:17:19 14.01, -57.59 10/14/2012 17:07:19 14.07, -58.27 73.82 600
2 10/14/2012 18:03:24 -2.09, 112.64 10/14/2012 17:54:33 -1.92, 111.82 93.17 531
3 10/17/2012 09:31:11 4.51, 60.35 10/17/2012 09:21:39 4.35, 59.67 76.85 572
4 10/20/2012 01:01:40 -17.27, 5.82 10/20/2012 00:51:40 -17.32, 5.11 75.80 600
5 10/20/2012 01:46:58 2.08, 176.75 10/20/2012 01:38:06 1.90, 175.93 92.83 532
6 10/22/2012 17:14:27 -4.03, 124.60 10/22/2012 17:05:04 -3.88, 123.89 80.54 563
7 10/25/2012 08:41:56 5.52, 72.51 10/25/2012 08:32:07 5.40, 71.89 70.07 589




NCC Satellite Simultaneous Nadir Overpasses (SNOs) Prediction Service
